TimeEDT,TemperatureF,Dew PointF,Humidity,Sea Level PressureIn,VisibilityMPH,Wind Direction,Wind SpeedMPH,Gust SpeedMPH,PrecipitationIn,Events,Conditions,WindDirDegrees,DateUTC
12:53 AM,75.0,71.1,87,29.93,4.0,SE,3.5,-,N/A,,Partly Cloudy,130,2013-08-28 04:53:00
1:53 AM,75.0,71.1,87,29.90,4.0,SE,3.5,-,N/A,,Scattered Clouds,140,2013-08-28 05:53:00
2:53 AM,75.0,71.1,87,29.91,4.0,Calm,Calm,-,0.00,,Overcast,0,2013-08-28 06:53:00
3:53 AM,75.9,71.1,85,29.89,5.0,Calm,Calm,-,0.00,,Haze,0,2013-08-28 07:53:00
4:53 AM,77.0,71.1,82,29.88,7.0,Calm,Calm,-,N/A,,Clear,0,2013-08-28 08:53:00
5:53 AM,75.9,71.1,85,29.87,6.0,Calm,Calm,-,N/A,,Haze,0,2013-08-28 09:53:00
6:53 AM,75.0,70.0,84,29.88,5.0,Calm,Calm,-,N/A,,Haze,0,2013-08-28 10:53:00
7:53 AM,75.9,71.1,85,29.87,5.0,Calm,Calm,-,N/A,,Haze,0,2013-08-28 11:53:00
8:53 AM,77.0,71.1,82,29.89,7.0,Variable,3.5,-,N/A,,Overcast,0,2013-08-28 12:53:00
9:53 AM,78.1,70.0,76,29.88,8.0,Calm,Calm,-,N/A,,Overcast,0,2013-08-28 13:53:00
10:53 AM,80.1,71.1,74,29.87,9.0,WSW,4.6,-,N/A,,Overcast,240,2013-08-28 14:53:00
11:50 AM,80.6,71.6,74,29.88,10.0,WSW,11.5,17.3,N/A,,Overcast,250,2013-08-28 15:50:00
11:53 AM,81.0,70.0,69,29.85,10.0,West,11.5,17.3,N/A,,Overcast,260,2013-08-28 15:53:00
12:53 PM,82.9,70.0,65,29.84,10.0,WSW,10.4,-,N/A,,Mostly Cloudy,250,2013-08-28 16:53:00
1:53 PM,82.0,71.1,69,29.85,9.0,WNW,4.6,-,N/A,,Overcast,300,2013-08-28 17:53:00
2:53 PM,81.0,71.1,72,29.86,9.0,West,5.8,-,0.00,,Overcast,280,2013-08-28 18:53:00
3:20 PM,84.2,71.6,66,29.87,9.0,West,8.1,-,0.00,,Overcast,280,2013-08-28 19:20:00
3:43 PM,80.6,71.6,74,29.88,8.0,NW,6.9,18.4,0.00,,Overcast,320,2013-08-28 19:43:00
3:53 PM,82.9,72.0,69,29.86,8.0,NNW,8.1,-,0.00,,Overcast,340,2013-08-28 19:53:00
4:23 PM,82.4,71.6,70,29.88,7.0,WNW,9.2,-,N/A,,Mostly Cloudy,300,2013-08-28 20:23:00
4:50 PM,82.4,71.6,70,29.88,9.0,NNW,11.5,-,N/A,,Mostly Cloudy,340,2013-08-28 20:50:00
4:53 PM,82.9,71.1,67,29.86,9.0,NNW,9.2,19.6,N/A,,Mostly Cloudy,330,2013-08-28 20:53:00
5:13 PM,82.4,71.6,70,29.88,7.0,NNW,11.5,-,N/A,,Mostly Cloudy,330,2013-08-28 21:13:00
5:53 PM,81.0,70.0,69,29.86,10.0,NW,10.4,19.6,N/A,,Scattered Clouds,310,2013-08-28 21:53:00
6:09 PM,80.6,69.8,70,29.88,10.0,NNW,12.7,-,N/A,,Mostly Cloudy,340,2013-08-28 22:09:00
6:53 PM,80.1,69.1,69,29.87,10.0,NNW,11.5,18.4,N/A,,Overcast,330,2013-08-28 22:53:00
7:01 PM,78.8,69.8,74,29.89,10.0,NNW,10.4,19.6,N/A,,Overcast,330,2013-08-28 23:01:00
7:34 PM,78.8,69.8,74,29.90,10.0,North,8.1,-,N/A,,Overcast,360,2013-08-28 23:34:00
7:53 PM,77.0,69.1,76,29.89,10.0,North,6.9,-,N/A,,Mostly Cloudy,10,2013-08-28 23:53:00
8:53 PM,75.9,69.1,79,29.92,10.0,Calm,Calm,-,N/A,,Overcast,0,2013-08-29 00:53:00
9:53 PM,75.0,69.1,82,29.94,10.0,North,4.6,-,N/A,,Overcast,350,2013-08-29 01:53:00
10:53 PM,75.0,69.1,82,29.95,10.0,North,4.6,-,N/A,,Overcast,350,2013-08-29 02:53:00
11:53 PM,73.9,68.0,82,29.95,9.0,Calm,Calm,-,N/A,,Overcast,0,2013-08-29 03:53:00